Tracking 30696 objects as of 15-Jun-2025
HD Live streaming from Space Station
objects crossing your sky now

COSMOS 970 DEB

Track COSMOS 970 DEB now!
10-day predictions


NORAD ID: 10576
Int'l Code: 1977-121T
Perigee: 916.5 km
Apogee: 1,120.6 km
Inclination: 65.8 °
Period: 105.4 minutes
Semi major axis: 7389 km
RCS: 0.1037 m2 (medium)
Launch date: December 21, 1977
Source: Commonwealth of Independent States (former USSR) (CIS)
Launch site: TYURATAM MISSILE AND SPACE COMPLEX (TTMTR)

Note: This is SATELLITE DEBRIS
Your satellite tracking list
Your tracking list is empty




NASA's NSSDC Master Catalog

Two Line Element Set (TLE):
1 10576U 77121T   25165.83225829  .00000054  00000-0  14901-3 0  9992
2 10576  65.8389   3.3525 0138062 356.5525  89.9582 13.66710797364684
Source of the keplerian elements: AFSPC